Theta_e
314 314 313 313 313 313 314 314 313 314 315 316 317 317 318 318 319 319 319 319 319 318 319 318 319 319 319 320 320 320 320 321 321 319 318 319 320 320 320 320 319 318 318 318 319 319 318 317 316 316 315 314 314 314 314 314 313 312 312 312 312 311 311 311 310 310 310 310 310
313 313 312 310 310 312 315 315 314 314 316 317 317 318 319 319 319 319 320 319 320 319 319 319 319 319 320 320 320 321 321 321 321 320 320 320 320 320 319 320 319 319 318 318 318 319 318 317 317 316 315 314 313 313 313 313 313 312 312 312 312 311 311 311 311 310 311 311 311
312 312 312 312 313 314 315 316 316 316 317 317 318 319 319 320 320 320 320 320 320 320 319 319 319 319 319 320 321 321 321 322 322 321 321 321 321 320 320 320 319 318 318 318 318 318 318 318 316 315 314 314 313 313 313 312 312 312 311 312 312 311 312 312 311 311 311 311 311
313 312 312 312 313 314 316 317 317 318 318 318 319 319 319 320 320 320 320 320 320 320 319 319 319 319 319 319 320 321 321 320 321 322 322 321 321 321 320 319 319 319 318 318 318 318 318 318 317 315 314 314 313 313 312 312 312 311 311 312 311 311 311 311 311 311 311 311 311
314 313 312 313 314 316 317 318 318 319 319 319 319 319 320 320 320 320 320 320 320 320 320 320 319 319 319 319 320 321 321 320 318 320 322 322 322 321 321 320 320 319 319 318 318 318 318 318 317 316 315 314 313 313 312 312 312 311 311 311 311 311 311 311 311 311 311 311 311
315 314 314 314 316 317 318 319 319 320 320 320 320 320 320 320 320 320 320 320 320 321 320 319 318 318 318 319 320 321 322 322 320 321 322 322 321 321 321 320 320 320 319 318 318 318 318 318 317 316 316 315 314 313 313 312 312 311 311 311 311 311 311 310 311 311 311 311 311
318 316 316 316 316 317 319 319 320 320 320 320 319 319 319 319 319 319 319 320 320 320 320 318 318 318 318 320 320 321 322 322 322 322 322 321 321 321 321 321 320 320 319 319 319 318 318 317 317 316 314 313 314 314 313 313 312 311 311 310 310 311 311 310 310 310 310 310 311
319 318 317 317 318 318 319 320 320 320 320 319 319 319 319 319 319 319 319 320 320 320 320 319 319 319 319 319 320 321 321 322 322 322 322 321 321 321 321 321 320 320 319 319 319 318 318 317 317 316 315 314 314 314 313 313 312 311 311 310 310 310 311 310 310 310 310 310 310
321 320 320 319 319 319 319 320 320 320 320 319 319 319 320 319 319 319 319 319 319 319 320 320 320 320 319 319 319 320 321 321 322 321 321 321 321 321 321 321 320 320 320 319 319 318 318 317 317 317 316 316 315 314 314 313 313 311 311 310 310 310 310 310 310 310 310 310 310
321 321 321 321 320 320 320 320 320 321 320 320 319 320 319 316 317 319 319 319 318 319 320 320 320 320 319 319 319 320 320 321 321 322 321 321 321 321 321 320 320 320 320 320 319 319 318 318 317 316 316 316 315 315 314 314 313 312 311 311 310 310 310 310 310 310 309 309 310
322 322 322 321 321 321 320 320 320 320 320 320 320 320 319 317 318 319 319 318 319 319 320 320 320 320 319 319 319 319 320 321 321 321 321 321 321 321 321 321 320 320 320 320 320 319 319 318 317 317 316 316 316 315 315 314 313 312 311 311 310 310 310 309 309 309 309 309 309
321 322 322 322 322 322 321 321 321 320 320 320 320 320 320 320 320 320 319 319 319 319 319 320 320 320 320 319 319 319 319 321 321 321 322 321 321 321 321 321 320 320 320 320 320 320 319 318 317 316 316 316 316 316 315 314 313 313 312 311 311 310 310 310 309 309 309 309 309
321 321 322 322 322 322 322 321 321 321 320 320 319 319 320 320 320 320 320 320 319 320 319 320 320 320 320 320 320 319 320 320 321 321 322 322 322 321 321 320 320 320 320 320 320 319 319 318 318 317 316 316 316 315 315 314 314 313 312 312 311 311 311 310 310 310 309 309 309
321 321 322 322 322 322 322 322 321 321 321 320 320 320 320 320 320 320 320 320 320 320 320 320 320 320 321 321 321 321 320 321 321 321 322 322 322 322 321 321 321 320 320 320 320 319 319 318 318 317 316 316 316 315 315 315 314 314 313 312 312 311 311 311 310 310 310 309 309
321 321 321 322 322 322 322 322 322 322 321 321 320 320 320 320 320 320 321 321 321 321 321 321 320 320 320 321 321 321 321 321 321 321 322 322 322 322 322 321 321 320 320 320 320 320 319 319 318 318 317 316 316 316 315 315 315 314 314 313 312 312 312 311 311 311 310 310 309
321 321 321 321 321 321 322 322 323 323 322 322 322 321 321 321 321 321 321 322 322 322 322 322 321 321 321 321 321 321 322 321 322 321 322 322 322 322 322 322 321 321 321 320 320 320 319 319 319 318 318 317 316 316 316 315 315 314 314 314 313 313 312 312 312 312 311 311 310
320 321 321 321 321 321 322 322 323 323 323 323 323 322 322 321 322 321 321 322 323 323 323 322 323 322 322 320 321 321 321 321 321 321 321 321 322 322 322 322 321 321 321 321 320 320 319 319 319 318 318 317 317 316 316 315 315 314 314 314 314 314 313 312 312 312 312 311 310
320 321 321 321 322 322 322 322 322 323 323 324 323 323 323 322 322 322 322 322 323 324 324 323 323 323 322 322 322 321 321 321 321 321 321 321 321 321 322 322 321 321 321 321 320 320 320 319 319 318 318 317 317 316 316 315 315 315 314 314 314 314 314 313 313 313 313 312 311
320 321 321 322 322 322 322 321 322 322 323 324 324 324 324 323 323 323 323 323 323 323 324 324 324 323 323 322 322 321 320 321 321 321 321 321 321 321 321 321 321 321 321 321 321 320 319 319 319 318 318 317 317 317 316 316 315 315 315 315 315 315 315 314 314 314 313 313 312
320 321 321 322 322 322 322 322 322 323 323 323 324 324 324 324 324 324 323 324 323 323 324 324 324 324 323 323 322 322 321 321 321 321 321 321 321 320 320 320 321 321 321 321 320 320 319 319 319 318 318 317 317 317 316 316 316 315 315 315 315 315 315 315 315 314 314 313 312
320 320 321 322 322 322 322 323 323 323 323 323 323 324 324 324 324 324 324 323 323 324 324 324 324 324 323 323 323 322 322 321 321 321 321 321 321 320 320 320 320 320 320 320 320 320 319 319 318 318 318 317 317 317 317 316 316 315 315 315 315 315 315 315 315 314 314 314 313
321 321 321 322 322 322 323 323 323 323 323 323 323 323 323 324 324 324 324 324 324 324 324 324 324 324 324 323 323 323 322 321 321 321 321 321 321 321 320 320 320 320 320 320 320 319 319 318 318 317 317 317 317 317 316 316 316 315 315 315 314 315 314 314 315 314 314 314 314
321 322 322 322 322 322 321 322 323 323 323 323 323 323 323 323 323 324 324 324 323 323 324 324 324 324 324 323 323 323 322 322 322 321 321 321 321 321 321 321 321 320 320 320 320 319 319 319 318 317 317 317 317 317 316 316 316 315 315 315 314 314 315 314 314 315 314 314 314
323 323 323 323 323 322 322 322 323 322 322 322 323 323 323 324 324 324 324 324 324 323 323 324 324 323 324 324 323 323 322 322 321 321 321 321 321 321 321 321 321 321 321 320 319 318 318 318 318 318 317 317 317 317 317 316 316 316 315 315 314 314 314 314 314 314 314 314 314
323 323 323 323 323 323 323 323 323 322 322 322 323 323 324 324 324 324 324 323 324 324 324 324 323 324 324 324 323 323 323 322 321 321 321 321 321 321 322 322 321 322 321 319 312 308 308 311 315 318 319 318 318 317 317 317 316 316 315 315 314 314 314 314 314 314 314 314 314
324 324 324 324 324 324 323 323 323 323 323 323 323 323 323 324 324 324 324 323 324 324 324 324 324 323 322 324 323 323 323 322 322 321 321 321 321 321 321 322 322 322 321 316 308 304 303 304 307 311 315 320 319 318 317 317 316 316 316 315 314 314 314 314 313 314 314 314 314
324 324 324 324 324 324 324 324 324 323 323 323 323 323 323 324 324 324 324 324 324 324 324 324 324 322 320 323 323 323 323 322 322 322 321 321 321 321 321 321 322 322 320 312 305 302 300 301 303 305 310 319 319 319 318 317 317 317 316 316 315 315 314 314 313 313 314 315 315
324 324 325 325 324 324 324 324 324 324 324 323 323 323 323 324 324 324 324 324 324 324 324 324 324 323 323 323 323 323 323 323 323 322 322 321 321 321 321 321 321 320 316 308 303 300 300 300 301 302 305 312 319 321 320 319 318 317 317 317 316 316 315 314 314 314 314 314 315
325 325 325 324 324 324 325 325 324 324 324 324 324 323 323 323 323 324 324 324 324 324 324 324 324 324 324 324 324 324 323 323 323 323 323 322 321 321 321 321 321 318 311 303 301 300 300 300 300 300 302 306 315 320 320 319 318 318 317 317 316 316 315 315 315 315 315 315 314
325 325 325 325 325 325 325 325 325 325 325 325 324 324 323 323 324 324 324 324 324 324 324 325 325 324 324 324 324 324 323 324 324 324 323 323 322 322 321 320 321 318 311 300 300 300 300 300 300 300 300 302 311 318 321 320 319 318 317 317 316 316 316 315 315 315 316 316 315
325 325 325 325 325 325 325 325 325 325 325 325 325 324 324 324 324 324 324 324 324 324 323 324 325 324 324 324 324 324 324 324 324 324 324 323 322 321 322 322 322 318 311 299 298 299 300 300 300 300 299 299 308 316 321 320 319 318 317 317 317 317 317 317 316 316 316 316 315
325 325 325 325 325 325 325 325 325 325 325 325 325 325 324 324 324 324 325 325 325 324 324 324 324 324 324 325 324 324 324 324 324 324 324 323 323 323 323 323 323 319 311 299 298 298 299 300 300 300 299 299 306 314 320 320 319 318 318 317 317 317 318 318 317 317 317 316 315
326 325 325 325 325 325 325 325 325 325 325 325 325 325 325 325 325 325 325 325 325 325 325 325 324 324 324 324 324 324 324 324 323 322 321 322 323 324 323 322 323 319 310 300 297 296 297 298 299 299 298 298 306 314 319 319 319 319 318 317 317 318 318 318 318 318 317 316 315
325 325 325 325 324 324 325 325 325 325 325 325 325 325 325 324 325 325 324 324 324 325 325 325 325 325 325 324 325 325 324 323 323 323 324 323 323 323 323 323 324 316 305 297 295 294 295 296 297 298 297 297 306 313 318 319 319 318 317 317 317 318 318 318 318 317 317 316 315
325 325 325 324 324 325 325 325 325 325 325 324 324 324 324 324 324 324 324 322 323 324 326 326 326 325 326 325 325 325 324 323 323 324 324 323 323 322 322 322 324 310 296 292 292 292 293 294 295 296 297 298 307 313 318 318 318 318 317 317 317 318 318 317 314 312 311 312 313
325 324 324 324 324 324 324 324 324 324 324 324 324 324 324 325 325 325 323 321 322 324 325 325 326 326 326 325 325 324 323 324 324 323 322 322 322 322 322 322 326 309 292 291 291 292 292 293 294 294 296 301 309 314 317 317 317 317 317 317 317 315 311 305 300 297 296 298 298
325 324 324 324 324 324 324 324 324 324 324 323 324 324 324 324 325 325 324 322 324 325 325 325 325 325 325 325 325 325 324 325 323 322 321 320 321 322 322 322 324 308 293 290 291 291 292 292 293 294 296 303 310 314 315 316 315 316 315 312 308 302 294 288 288 288 288 289 290
324 324 324 324 323 323 323 323 323 323 323 323 323 324 324 324 325 324 323 321 324 325 324 324 325 325 325 325 325 325 325 325 323 322 321 320 320 319 319 320 310 300 292 291 291 291 292 292 293 294 297 305 310 313 315 315 315 314 310 298 292 290 290 290 289 288 288 287 287
324 324 324 323 323 323 323 323 323 322 322 322 323 323 324 324 324 324 323 321 324 324 324 324 324 324 324 323 324 324 325 326 321 316 311 311 309 307 305 305 298 295 292 291 291 291 292 292 293 293 296 303 310 313 314 314 314 310 302 294 292 290 289 288 288 287 287 286 287
324 324 324 323 323 323 323 323 323 323 323 323 323 323 323 324 323 323 322 322 324 324 324 323 323 323 323 320 322 324 323 320 309 302 299 298 297 296 295 296 295 294 292 291 291 291 291 292 293 293 296 303 309 313 314 315 313 306 298 293 291 289 288 287 287 286 286 285 286
324 324 323 323 323 323 323 323 323 323 323 323 323 322 322 322 322 323 324 324 324 324 324 324 324 324 323 320 321 317 310 304 297 295 295 294 293 293 293 293 293 293 292 291 290 291 291 292 293 293 295 300 307 311 313 314 309 301 295 292 291 289 287 287 286 286 285 285 284
Wind_Speed
14 12 11 10 9 9 8 8 7 7 7 7 8 8 8 8 8 8 8 7 7 7 7 8 7 8 8 10 11 11 11 11 10 10 9 9 9 9 9 9 10 10 10 9 9 8 7 7 6 5 4 4 5 5 5 5 6 6 6 6 6 6 6 7 7 8 8 8 6
15 14 12 10 9 8 7 7 7 7 7 7 7 8 8 8 8 8 8 8 8 7 7 7 8 9 10 10 11 11 11 11 11 10 10 10 10 10 10 9 9 10 11 10 9 8 7 7 7 5 5 4 5 5 6 6 7 7 7 8 7 6 6 7 7 8 8 8 7
15 14 13 12 10 8 7 7 7 8 9 9 8 8 8 8 8 8 8 9 9 9 8 7 9 10 11 11 10 10 10 11 11 10 10 10 10 10 10 9 9 10 11 10 10 9 8 8 7 6 5 5 5 6 6 6 6 6 7 8 6 6 5 6 7 7 7 6 7
15 14 13 13 12 10 8 6 7 9 10 9 9 9 9 8 7 7 8 9 10 9 9 9 10 11 11 11 11 11 11 11 11 11 10 10 10 11 11 10 10 10 11 11 11 10 9 9 7 5 5 6 6 6 6 6 6 6 6 6 5 6 6 6 6 6 6 6 7
15 14 13 12 12 11 9 7 8 8 8 9 9 9 8 8 7 7 8 9 9 9 9 10 10 10 11 12 12 12 11 12 11 11 10 10 11 11 11 11 11 10 11 11 11 11 11 10 7 6 6 6 6 6 6 7 7 6 5 5 5 6 6 6 6 6 5 6 6
14 14 14 13 12 11 9 8 8 7 7 8 8 8 8 7 7 7 7 8 8 9 10 11 10 10 11 12 12 12 11 11 11 11 11 12 11 11 11 12 12 12 11 11 11 12 11 11 7 6 6 6 6 7 7 8 7 7 6 5 6 6 6 6 6 5 6 6 7
14 15 15 15 14 12 10 9 8 7 6 7 8 9 8 8 8 8 8 7 7 8 9 9 9 9 10 12 12 12 11 11 11 12 13 13 12 12 13 13 14 13 12 12 12 11 11 11 8 6 6 6 5 7 8 8 8 7 7 7 6 6 6 7 6 5 6 9 10
14 16 17 17 16 15 13 11 9 7 6 6 7 8 9 9 9 8 8 7 7 8 8 8 9 10 11 12 13 13 13 13 13 13 13 12 13 14 14 15 15 15 14 14 13 12 11 10 7 7 6 6 5 6 8 10 9 9 9 9 7 6 6 7 7 7 7 9 10
14 15 17 17 17 16 14 13 10 8 6 6 7 8 8 8 9 9 8 7 7 8 9 9 11 12 12 13 14 14 14 15 15 14 14 13 15 15 15 15 16 16 15 14 14 13 12 9 7 7 7 6 6 7 9 11 12 12 11 9 8 7 7 7 8 8 8 9 10
14 15 16 17 16 16 15 13 11 9 8 8 8 8 8 8 9 9 8 7 7 8 9 10 12 13 13 14 14 14 15 15 15 15 15 15 16 16 16 15 16 16 15 14 14 14 13 10 9 9 9 8 9 10 11 12 13 13 12 8 8 9 9 8 8 9 9 9 10
16 16 16 15 16 16 15 14 12 11 10 9 10 10 9 9 9 9 8 8 8 9 11 11 12 13 14 13 13 14 14 14 15 15 16 17 17 17 17 16 16 16 16 15 14 13 12 10 11 12 12 10 11 11 12 13 13 13 12 9 9 10 11 10 10 10 9 9 10
16 16 16 16 17 16 16 15 13 12 12 12 12 12 11 10 10 10 10 10 10 11 11 11 12 13 13 12 13 13 14 14 15 16 16 17 17 18 18 17 17 17 17 16 14 13 12 12 13 14 14 12 11 11 12 13 13 13 13 11 11 11 12 12 11 10 9 9 10
16 16 16 16 17 17 16 15 14 13 13 14 14 13 12 11 12 12 12 12 11 11 11 11 12 13 13 12 12 13 13 14 15 16 16 17 17 17 18 17 17 17 17 16 15 13 13 13 15 15 16 15 12 11 12 13 14 14 14 13 12 12 12 13 12 11 10 10 10
16 16 16 17 17 17 16 16 14 13 14 15 15 13 12 12 12 13 12 13 12 12 11 11 11 11 12 13 13 13 14 14 15 16 16 16 16 17 17 17 17 17 16 15 15 15 15 15 16 16 17 16 15 14 13 13 14 14 14 14 14 14 14 13 13 12 11 11 11
16 17 17 17 17 16 15 15 14 13 14 15 15 14 13 12 12 12 12 13 13 12 11 11 11 11 12 13 14 14 15 14 15 16 16 16 16 17 17 17 17 17 16 15 15 15 16 17 17 17 17 17 16 15 15 14 14 14 14 14 15 14 14 13 13 12 11 11 11
17 17 17 17 17 16 15 15 12 13 14 15 15 14 14 12 12 12 12 13 13 12 11 12 12 11 11 12 14 14 14 14 15 15 16 16 16 17 17 17 17 17 17 16 16 16 16 16 16 16 17 17 17 16 15 15 14 14 14 14 14 14 14 13 13 12 12 12 11
17 17 17 17 18 17 16 15 13 12 13 14 15 15 14 13 12 12 12 13 13 12 13 14 13 12 11 11 12 13 13 13 14 14 15 15 16 16 16 17 17 17 17 17 17 17 16 16 15 15 16 16 16 16 15 15 14 14 14 14 14 13 13 13 13 13 12 12 12
17 17 17 17 18 18 18 17 15 14 14 15 15 15 14 14 13 13 13 14 14 14 15 15 14 13 13 13 12 12 12 13 13 14 14 15 15 16 16 16 16 16 17 17 17 17 17 17 16 15 14 14 14 14 14 15 14 14 14 14 14 13 13 13 13 13 13 13 13
18 18 18 18 18 18 18 18 17 16 16 16 15 15 15 15 15 15 14 14 15 15 16 16 15 14 14 15 14 12 12 13 14 15 15 15 15 16 16 16 16 16 16 17 17 17 17 17 16 15 14 14 13 13 13 13 14 14 14 14 14 14 13 13 13 13 13 13 13
19 19 19 19 19 19 18 18 18 18 17 16 16 16 16 17 17 17 16 16 16 16 16 17 16 16 15 16 16 15 13 12 14 15 16 16 16 16 16 16 16 16 16 17 17 17 17 16 16 15 15 14 14 13 13 13 13 14 14 13 14 14 14 14 13 13 13 13 12
20 20 20 19 19 19 19 18 18 18 18 17 17 18 18 18 18 18 18 17 17 16 17 17 17 17 17 17 17 16 15 13 14 15 16 16 17 17 17 17 16 16 16 16 16 16 17 16 16 15 15 15 14 14 14 13 13 13 13 12 12 13 14 13 13 13 13 12 12
21 20 20 20 20 19 19 19 18 18 18 18 18 18 18 18 18 18 18 17 17 17 17 17 17 17 17 17 17 17 16 13 14 15 15 15 16 16 16 15 16 16 16 16 16 16 16 16 16 15 15 14 15 15 15 14 14 14 13 13 12 13 13 13 13 12 12 12 12
20 20 20 20 20 20 19 19 19 19 19 19 19 19 19 19 18 18 18 17 16 16 16 15 15 16 17 17 17 17 16 15 15 15 15 15 15 16 15 15 15 16 16 16 15 15 15 15 15 15 15 14 15 15 15 15 14 14 14 14 13 13 13 12 12 12 12 12 12
20 20 19 17 19 20 20 20 19 19 19 19 19 19 19 18 18 18 17 17 17 17 17 15 14 15 16 17 17 17 17 17 17 17 17 16 16 16 16 15 15 15 15 13 12 12 12 12 13 13 14 14 14 15 15 14 14 14 14 14 14 13 12 12 12 12 12 12 12
20 20 19 18 19 20 20 20 20 20 20 19 19 19 19 18 18 17 17 17 18 18 18 17 16 15 15 16 17 17 17 18 18 18 17 17 17 16 16 15 14 13 12 10 11 12 12 11 11 11 12 13 13 13 13 13 13 14 13 13 13 12 12 12 12 12 11 12 11
20 20 20 19 19 20 20 20 20 20 20 20 19 19 19 18 18 17 17 18 18 18 18 18 17 16 15 15 16 17 17 16 17 17 18 17 18 17 16 14 13 11 10 10 11 12 13 13 12 12 12 12 12 12 11 11 12 13 13 12 11 11 11 11 11 11 11 10 11
20 20 20 20 20 20 20 20 20 20 20 20 20 20 19 18 17 17 18 18 18 18 18 17 17 15 14 14 16 17 17 15 15 16 17 18 18 17 16 14 12 10 9 10 11 13 13 14 14 13 12 11 11 11 10 10 10 11 11 11 10 10 10 11 11 11 10 10 11
20 20 20 20 21 21 21 20 20 21 21 21 21 20 20 19 19 19 18 18 18 17 17 16 15 14 12 12 15 17 18 17 15 15 16 17 17 17 16 14 12 11 10 11 12 13 14 15 15 15 13 11 10 9 9 8 8 9 9 9 10 10 11 11 10 10 10 11 11
21 20 21 21 21 21 21 21 21 21 21 21 21 20 20 20 20 20 19 19 19 17 15 12 11 10 10 11 13 15 17 17 16 15 15 16 17 17 16 15 13 12 11 11 12 13 14 15 16 15 15 13 10 8 8 8 8 8 9 9 9 10 10 10 10 9 10 10 10
21 21 21 21 21 21 21 21 21 21 20 19 20 20 20 20 21 20 20 20 19 17 14 10 10 10 11 12 13 13 14 15 14 14 15 16 17 17 16 14 13 12 10 10 12 14 15 16 16 16 16 15 11 9 9 9 9 9 9 9 9 10 11 11 11 11 10 9 10
21 21 21 21 21 21 21 21 20 20 19 18 19 20 20 20 21 21 20 19 18 15 13 11 12 13 14 13 12 12 13 13 13 14 15 16 16 16 15 14 14 13 10 9 11 14 15 16 17 17 17 17 13 11 10 11 10 10 9 9 10 10 11 11 11 12 11 11 10
21 21 21 21 21 21 20 20 20 19 19 19 19 19 20 20 20 19 17 16 15 14 13 13 14 14 14 13 12 12 13 13 13 14 14 14 15 15 14 14 14 13 10 8 11 13 15 17 17 18 19 19 15 13 12 12 12 11 10 10 11 11 11 11 11 11 12 11 10
21 21 21 20 20 20 20 19 19 18 18 18 18 19 19 19 17 16 15 14 13 13 14 14 15 15 14 13 13 12 12 12 13 13 13 12 12 12 12 11 11 10 7 3 5 8 12 15 17 18 19 20 16 14 14 13 12 11 10 9 10 11 11 11 10 10 10 10 9
20 20 20 20 20 19 19 18 18 18 18 18 18 18 18 17 16 16 15 13 11 11 11 12 13 13 12 12 11 11 12 11 11 11 11 10 10 9 9 9 8 3 4 10 7 4 7 12 14 16 17 18 14 13 13 13 12 11 10 10 9 9 9 9 8 7 6 6 6
20 20 20 20 19 19 18 18 18 18 18 18 18 18 17 16 16 15 13 11 10 9 9 10 10 10 10 10 10 11 11 11 10 10 9 9 8 7 8 9 8 4 15 16 13 10 7 9 11 13 14 14 11 11 11 13 11 11 10 10 8 7 6 4 1 2 3 3 3
19 19 19 19 19 18 18 18 18 18 18 18 18 17 16 15 13 12 10 9 9 9 9 9 8 9 9 9 9 9 9 10 10 9 8 7 7 7 7 11 9 6 18 17 15 13 10 7 8 10 11 10 9 9 9 10 9 9 9 7 4 3 7 10 11 12 11 10 10
19 19 19 18 18 18 18 18 18 18 18 18 17 16 15 15 13 11 9 8 9 9 9 8 8 8 9 9 9 8 8 8 7 7 7 7 7 7 8 11 4 7 16 18 16 15 12 8 5 7 8 8 7 8 7 7 5 5 3 2 6 11 13 12 12 13 13 13 12
18 18 18 18 17 17 17 17 17 18 18 17 15 13 13 13 12 11 9 8 9 9 10 9 9 9 9 8 8 8 7 6 5 3 2 3 3 3 3 2 7 12 15 17 17 16 13 9 3 3 6 6 6 6 5 4 2 0 4 9 10 11 10 9 9 10 13 15 16
17 17 17 17 17 17 17 17 17 17 16 15 14 12 11 11 10 9 8 8 8 9 9 9 9 9 9 9 8 8 6 3 3 6 9 9 11 11 11 12 14 14 14 17 18 17 15 11 5 0 4 6 5 4 4 4 2 3 7 8 8 8 9 8 8 9 11 15 19
16 16 16 16 16 16 16 16 17 15 14 13 13 13 13 11 10 9 8 8 8 8 8 9 9 9 9 8 7 5 3 8 13 16 16 16 17 17 16 15 14 14 15 18 19 19 16 13 9 4 1 3 4 4 4 4 0 4 7 7 7 7 8 8 8 8 9 12 16
15 15 15 15 15 15 15 16 16 14 12 12 13 13 11 9 9 9 9 8 8 8 8 8 9 9 8 6 4 8 13 18 18 17 17 17 16 15 15 14 14 14 16 18 21 21 19 16 13 10 6 3 3 3 3 1 4 6 8 7 6 7 7 7 8 8 9 10 11
Wind_Direction
178 180 183 184 184 185 185 186 184 182 181 183 183 182 181 182 181 179 178 176 175 177 179 180 181 183 185 183 183 185 188 189 187 185 184 183 185 184 182 179 173 172 174 178 179 180 182 180 177 178 181 183 185 188 190 193 193 196 199 201 204 204 204 205 209 212 214 216 216
178 181 183 186 187 188 188 187 184 183 183 186 187 187 186 187 185 182 179 178 176 177 178 180 182 184 185 184 183 184 186 189 188 187 185 185 188 188 186 184 178 175 175 179 178 180 182 183 180 181 183 184 185 188 193 197 196 197 200 203 204 204 204 207 210 211 213 215 217
177 180 184 188 190 192 193 193 189 186 186 187 189 190 190 190 188 184 181 179 177 177 179 181 183 184 185 185 184 184 185 188 188 187 186 187 189 189 189 188 185 180 178 180 180 181 183 186 183 183 185 186 188 190 194 200 197 197 200 204 205 205 205 209 210 210 211 214 215
177 179 184 190 194 197 200 202 197 192 189 187 190 191 192 192 190 186 182 179 178 179 180 182 184 184 185 186 185 185 186 187 187 187 187 187 189 191 191 190 189 187 183 183 183 183 184 185 186 187 188 188 189 191 194 198 198 199 201 204 205 206 207 209 209 209 210 213 215
176 177 183 191 196 200 206 212 209 201 193 188 189 190 191 192 191 188 183 180 180 180 181 182 184 184 185 185 185 185 185 186 187 187 188 188 190 192 192 191 192 192 190 186 186 185 184 184 186 190 192 191 192 194 195 195 198 200 203 205 206 207 207 208 208 208 208 211 212
174 174 180 190 197 203 209 217 216 208 197 189 189 189 190 190 190 189 186 182 180 178 178 181 183 184 183 183 184 184 185 186 187 188 190 191 192 193 194 195 195 196 196 192 189 186 185 184 188 192 195 195 199 198 196 193 196 201 204 207 208 208 209 209 208 207 207 208 210
174 174 179 189 196 203 209 217 218 211 199 191 190 189 190 190 191 190 188 182 176 174 176 180 183 184 184 183 183 184 185 187 189 191 193 194 194 195 197 198 198 199 198 197 194 190 188 187 189 193 195 196 201 201 198 194 195 200 204 207 207 208 209 210 209 207 206 207 208
176 175 179 188 195 201 207 213 214 209 200 195 193 192 191 191 192 191 189 183 177 176 177 181 186 188 187 186 186 187 188 190 191 193 195 196 195 197 199 201 201 201 201 201 198 194 192 190 191 193 195 196 200 203 202 199 198 200 205 208 208 208 209 211 210 208 206 207 207
179 179 181 186 193 199 204 209 209 207 203 200 198 196 194 193 194 193 192 189 185 181 181 184 189 192 192 191 190 190 191 193 194 195 197 198 198 199 201 202 203 204 204 203 201 199 196 194 194 195 196 196 199 203 204 203 202 204 206 208 208 208 208 211 210 208 207 206 207
182 182 182 186 191 196 201 205 206 206 205 205 203 200 197 196 196 196 195 194 192 189 188 189 192 194 196 197 195 194 194 195 196 198 199 201 201 202 203 204 205 205 205 204 203 201 199 198 198 199 200 199 201 203 205 206 207 207 207 208 207 207 208 210 210 209 208 208 207
185 185 185 186 189 194 198 201 203 205 206 208 207 205 201 199 199 199 198 198 198 198 196 194 194 196 198 200 200 199 197 197 197 198 200 202 203 204 204 205 206 206 206 206 204 203 201 200 202 203 204 203 203 205 207 207 209 210 209 208 207 207 208 209 209 209 209 209 207
188 188 188 188 190 192 195 198 201 203 206 208 209 208 206 202 201 201 201 200 202 203 202 200 198 198 200 202 203 203 201 200 199 200 201 202 204 205 206 207 207 207 207 207 205 204 204 204 204 205 206 205 205 207 208 208 209 210 211 209 207 208 209 210 209 209 209 208 208
190 190 191 192 192 193 195 196 199 202 204 207 209 210 208 205 203 203 203 203 204 205 205 205 203 202 202 203 204 205 205 204 202 201 201 202 204 206 207 208 208 208 208 208 207 206 206 207 206 207 208 207 208 208 208 208 209 210 211 211 209 210 211 211 209 209 208 208 208
193 193 194 195 195 195 196 196 197 200 202 205 208 209 210 208 205 204 204 205 205 206 207 207 207 206 205 205 206 207 208 208 206 204 203 202 204 205 207 208 209 209 209 209 208 208 208 209 208 209 209 209 209 209 208 208 209 211 212 212 212 212 213 213 211 209 207 207 208
196 196 196 197 198 198 198 197 197 198 200 203 205 208 209 209 207 205 205 206 207 207 208 208 209 209 209 209 209 210 210 211 210 209 207 205 205 205 207 208 209 210 210 210 209 210 210 211 211 211 211 211 211 210 209 208 210 211 213 213 213 213 213 213 211 209 207 206 207
199 198 198 198 199 200 200 199 199 199 199 201 203 206 209 210 209 207 206 207 208 208 209 210 211 211 212 212 213 213 213 213 213 213 212 209 208 207 207 208 209 210 210 210 211 211 212 213 213 213 213 213 212 211 210 210 211 212 214 214 214 214 213 212 211 210 208 206 206
201 200 199 199 200 201 201 202 202 201 201 201 203 205 207 209 210 209 207 207 208 209 210 211 212 212 212 214 214 215 215 215 216 216 216 215 213 211 209 209 210 210 211 211 212 212 213 214 214 215 215 215 214 213 212 210 211 212 214 215 215 215 214 211 210 210 210 208 208
202 202 201 201 201 201 202 203 204 204 204 204 204 205 206 208 210 210 210 209 210 211 211 212 213 213 214 214 215 216 217 217 217 218 218 219 217 216 214 212 211 211 211 212 213 214 214 215 215 216 217 217 216 215 213 212 212 212 213 215 216 216 215 213 211 210 210 210 210
203 203 203 203 203 203 203 204 206 206 207 207 207 207 208 209 210 211 212 212 212 212 212 213 214 215 215 215 215 216 217 218 219 220 220 220 221 220 219 217 215 214 213 214 215 215 216 216 215 216 217 218 218 218 216 214 213 213 213 214 216 216 216 215 213 212 211 211 210
204 204 204 204 204 205 205 206 207 208 209 209 210 210 210 210 211 212 213 214 213 213 213 214 215 216 216 217 217 217 217 218 220 221 221 221 222 222 223 222 220 217 216 215 216 217 217 217 216 216 216 217 219 219 218 217 216 215 214 214 215 216 217 216 215 214 213 211 209
204 205 205 205 206 206 207 207 208 209 210 211 212 212 212 212 212 213 214 214 214 214 214 215 216 217 218 218 219 218 218 219 219 221 222 223 223 223 224 224 223 221 219 217 217 217 218 218 217 216 215 215 217 218 218 218 218 217 216 215 215 215 216 216 216 215 213 211 207
204 204 205 206 207 208 208 209 209 210 211 212 213 214 214 214 213 213 214 214 214 214 214 215 216 217 218 219 220 220 220 220 220 221 222 223 224 224 224 224 224 224 222 220 219 218 217 218 217 216 215 214 215 216 217 218 219 219 218 217 216 216 215 215 215 214 213 210 208
203 204 205 206 207 208 208 209 210 211 212 213 214 215 216 216 215 214 213 213 213 214 214 215 216 217 219 220 220 221 222 222 221 222 222 223 224 225 225 225 225 225 225 223 221 218 217 217 217 216 216 215 215 216 216 217 218 219 219 219 218 217 215 214 213 213 212 211 209
204 204 204 206 206 207 208 209 210 212 213 214 215 216 217 218 217 216 214 213 213 214 214 215 215 216 218 220 221 222 223 223 223 223 224 224 225 225 225 225 226 226 226 225 220 217 214 214 215 216 216 216 217 217 216 215 216 217 218 219 218 218 216 214 213 212 211 210 210
205 205 205 207 207 208 209 209 211 212 213 215 216 218 219 220 219 218 217 215 215 214 215 216 215 215 216 218 221 222 223 224 225 225 225 225 225 225 226 226 226 226 225 223 219 214 210 208 209 212 215 217 217 217 216 213 213 214 215 216 216 217 217 215 213 211 210 210 210
207 207 208 209 209 209 210 210 211 212 214 215 217 218 220 221 221 221 220 219 217 216 216 217 216 215 215 216 219 221 223 225 226 226 227 227 227 226 226 226 226 225 224 221 216 211 206 203 203 206 211 215 216 216 215 213 211 211 211 212 213 214 214 215 214 213 211 211 211
209 209 210 210 211 212 212 212 212 213 214 215 216 218 220 221 222 223 222 222 221 219 218 218 218 217 216 216 218 219 221 223 225 227 228 229 229 228 227 227 226 225 222 217 211 207 203 201 201 202 205 211 213 214 213 211 208 206 206 207 208 209 210 212 213 214 213 214 213
210 210 211 212 213 213 214 214 214 214 214 215 216 217 219 221 223 223 224 224 223 222 220 220 219 218 216 216 217 219 220 221 222 225 228 230 231 231 230 230 228 225 219 212 206 202 200 200 200 200 201 205 209 210 208 205 202 201 202 204 206 208 209 211 213 214 216 217 215
211 211 212 213 214 214 215 215 215 215 215 215 216 217 218 220 222 223 224 224 224 223 222 220 219 217 217 216 218 219 219 220 220 222 225 228 231 233 233 233 232 227 218 207 201 198 198 199 200 199 199 199 203 206 206 204 203 202 202 204 205 207 209 211 213 216 217 218 215
211 212 212 213 214 215 215 215 215 215 215 215 215 216 218 219 221 222 223 223 224 223 222 219 218 217 217 217 218 218 219 219 219 220 222 225 229 231 233 234 235 231 221 204 196 195 196 197 198 198 198 196 199 204 208 209 207 205 205 205 204 205 208 211 214 216 217 216 214
211 212 213 214 215 215 216 216 216 216 215 215 215 216 217 218 219 220 221 222 223 222 221 218 218 218 218 217 217 218 219 219 219 220 221 223 225 228 230 233 235 234 226 205 195 194 195 196 197 197 196 194 197 203 209 211 210 208 205 204 203 204 206 209 213 215 215 213 210
211 212 214 215 216 216 216 216 216 216 216 216 216 217 218 219 219 219 220 220 221 221 220 218 218 218 219 218 218 218 219 220 220 220 221 221 224 226 229 231 234 235 229 208 195 195 197 198 197 197 196 194 197 203 208 211 211 208 206 204 204 203 204 207 211 213 213 211 208
210 212 214 215 217 217 217 217 217 217 217 218 218 219 220 220 220 219 219 219 220 220 219 219 219 219 220 219 219 219 219 220 221 221 220 219 220 223 226 229 232 234 236 239 204 202 203 202 201 199 198 196 199 204 209 211 211 209 205 204 204 203 203 205 207 208 209 208 206
210 211 213 215 216 217 218 217 218 218 219 219 220 221 222 222 222 222 221 220 218 218 218 219 219 220 221 220 219 219 219 219 220 219 219 216 215 216 219 224 223 239 7 16 358 300 241 222 212 206 201 198 202 207 210 211 211 209 206 204 202 199 199 201 204 207 209 210 209
209 211 213 214 216 217 217 218 218 219 219 220 221 222 223 223 223 223 222 220 219 219 219 220 221 222 223 223 221 220 220 219 218 216 214 213 212 211 216 228 205 57 31 13 1 341 303 258 234 219 209 202 207 210 211 209 210 208 206 203 198 193 185 170 105 34 13 2 335
210 211 212 214 215 216 217 217 218 219 220 221 222 222 222 222 222 223 222 221 219 219 220 220 220 222 223 225 225 223 221 218 215 211 209 209 212 213 221 238 207 69 39 8 359 348 332 297 256 231 216 208 213 215 213 209 208 206 204 202 179 98 62 52 45 37 30 24 19
210 211 212 213 214 215 216 217 218 219 220 220 221 221 221 221 222 221 221 219 219 220 220 219 219 220 221 223 224 223 219 213 207 205 206 211 217 221 227 237 232 44 35 11 360 352 344 328 277 231 213 210 215 216 214 210 208 204 197 42 52 56 57 51 47 43 40 36 31
210 211 212 213 214 215 216 217 218 219 220 221 220 219 219 220 221 220 217 215 217 219 220 219 218 219 219 220 222 219 213 206 198 203 232 245 256 268 274 270 35 33 24 10 3 358 354 350 326 214 198 202 209 213 216 222 239 110 67 64 59 60 63 64 60 55 51 46 42
211 211 212 213 214 215 215 217 218 219 220 220 219 217 216 217 218 217 215 213 213 216 218 219 219 219 217 216 216 212 205 192 96 49 35 28 32 32 34 42 43 35 22 12 8 5 3 3 3 239 193 200 208 218 235 255 275 66 78 86 85 78 71 67 65 61 56 51 47
212 212 212 213 214 214 215 217 218 218 219 219 219 218 216 215 215 214 213 212 211 212 215 218 219 218 214 208 205 193 127 71 58 55 53 50 50 49 49 50 44 35 24 16 13 10 9 9 11 10 313 226 235 246 256 259 139 92 92 97 92 86 80 74 71 66 60 54 49
212 212 213 214 214 215 216 217 218 217 216 216 217 218 216 212 211 211 210 209 208 209 211 215 218 216 209 193 142 92 77 72 66 63 62 60 57 53 50 49 43 36 28 21 17 15 14 13 16 18 16 356 308 288 281 256 101 100 100 97 94 91 86 80 73 68 62 57 51